This demonstration page uses our WeatherBlox Daily Observations layout. Learn more.

Left ArrowRight Arrow

34.74481, -87.66753

Hourly Observations for March 4, 2022

Temp ( °F °C ) Dew Point ( °F °C ) Humidity (%) Winds ( mph kmh ) Pressure ( in mb ) Visibility ( mi km ) Precip ( " mm )
12:53 am 00:53 Clear 50 10 44 6.7 80 80 Calm 30.19 1022 10 16 0.00 0.00
1:53 am 01:53 Clear 47 8.3 43 6.1 86 86 Calm 30.18 1022 9 14 0.00 0.00
2:53 am 02:53 Clear 47 8.3 41 5 80 80 Calm 30.18 1022 9 14 0.00 0.00
3:53 am 03:53 Clear 47 8.3 43 6.1 86 86 Calm 30.19 1023 9 14 0.00 0.00
4:53 am 04:53 Clear 45 7.2 43 6.1 93 93 Calm 30.22 1023 7 11 0.00 0.00
5:53 am 05:53 Clear 44 6.7 41 5 89 89 Calm 30.24 1024 8 13 0.00 0.00
6:18 am 06:18 Sunny with Mist and Fog 44 6.7 42 5.6 93 93 Calm 30.27 1025 2 3 0.00 0.00
6:24 am 06:24 Sunny with Mist and Fog 45 7.2 42 5.6 90 90 Calm 30.26 1025 3 5 0.00 0.00
6:53 am 06:53 Sunny with Mist and Fog 44 6.7 42 5.6 93 93 Calm 30.25 1025 6 10 0.00 0.00
7:53 am 07:53 Sunny 54 12.2 47 8.3 77 77 E 3 6 30.27 1025 10 16 0.00 0.00
8:53 am 08:53 Sunny 58 14.4 46 7.8 65 65 E 6 9 30.27 1025 10 16 0.00 0.00
9:53 am 09:53 Sunny 64 17.8 47 8.3 54 54 E 5 7 30.27 1025 10 16 0.00 0.00
10:53 am 10:53 Sunny 70 21.1 48 8.9 46 46 VRB 3 6 30.26 1025 10 16 0.00 0.00
11:53 am 11:53 Sunny 75 23.9 47 8.3 37 37 VRB 3 6 30.24 1024 10 16 0.00 0.00
12:53 pm 12:53 Sunny 79 26.1 45 7.2 30 30 E 6 9 30.20 1023 10 16 0.00 0.00
1:53 pm 13:53 Sunny 82 27.8 35 1.7 18 18 S 9 15 30.17 1022 10 16 0.00 0.00
2:53 pm 14:53 Sunny 82 27.8 34 1.1 18 18 S 12 19 30.14 1021 10 16 0.00 0.00
3:53 pm 15:53 Sunny 80 26.7 35 1.7 20 20 S 12 19 30.13 1020 10 16 0.00 0.00
4:53 pm 16:53 Sunny 76 24.4 39 3.9 26 26 S 9 15 30.14 1021 10 16 0.00 0.00
5:53 pm 17:53 Clear 73 22.8 38 3.3 28 28 SSW 5 7 30.13 1020 10 16 0.00 0.00
6:53 pm 18:53 Clear 71 21.7 38 3.3 30 30 S 5 7 30.15 1021 10 16 0.00 0.00
7:53 pm 19:53 Clear 62 16.7 44 6.7 52 52 SSE 5 7 30.15 1021 10 16 0.00 0.00
8:53 pm 20:53 Clear 64 17.8 44 6.7 48 48 SSE 6 9 30.16 1022 10 16 0.00 0.00
9:53 pm 21:53 Clear 61 16.1 43 6.1 52 52 SE 6 9 30.16 1021 10 16 0.00 0.00
10:53 pm 22:53 Clear 63 17.2 39 3.9 41 41 SE 6 9 30.15 1021 10 16 0.00 0.00
11:53 pm 23:53 Clear 59 15 39 3.9 48 48 SE 5 7 30.14 1021 10 16 0.00 0.00

Powered by AerisWeather